GEFSCGP_con_probscp_246.txt.gz
Probability
0 0 0 0 0 0 0 0 0 0 0 0 1 1 1 0 0 0 1 3 4 5 8 11 12 14 20 27 29 26 21 17 18 18 17 16 15 12 11 9 7 6 5 4
0 0 0 0 0 0 0 0 0 0 0 0 1 1 1 1 0 0 1 3 5 8 11 14 15 15 20 28 29 25 21 20 19 18 17 17 17 15 12 10 8 7 6 5
0 0 0 0 0 0 0 0 0 0 0 0 1 1 1 2 1 0 1 2 5 10 14 16 17 18 23 30 30 25 22 21 20 17 15 16 17 15 12 9 9 10 10 9
0 0 0 0 0 0 0 0 0 0 0 0 1 2 2 2 2 1 0 1 3 7 10 13 15 19 25 30 30 27 25 24 21 17 16 15 15 13 9 7 12 16 17 16
0 0 0 0 0 0 0 0 0 0 0 0 1 2 2 2 2 2 1 0 1 4 7 9 13 18 24 28 29 30 31 29 24 20 18 15 12 10 7 9 17 23 23 22
0 0 0 0 0 0 0 0 0 0 0 0 0 1 1 1 2 3 2 1 1 3 6 8 11 16 21 26 28 32 36 35 28 24 22 18 14 10 8 11 19 26 27 27
0 0 0 0 0 0 0 0 0 0 0 0 0 0 0 0 1 2 4 3 2 4 7 9 12 15 20 24 28 34 39 37 31 27 25 23 18 14 12 13 19 25 27 28
0 0 0 0 0 0 0 0 0 0 0 0 0 1 1 0 1 3 4 4 3 4 8 11 13 17 21 24 29 36 41 39 34 30 28 27 23 19 16 18 21 24 26 26
0 0 0 0 0 0 0 0 0 0 0 0 1 2 2 1 1 3 4 2 1 4 8 13 18 23 26 28 31 38 44 43 37 33 32 31 29 24 22 24 27 27 26 26
0 0 0 0 0 0 0 0 0 0 0 0 2 3 3 2 2 3 5 4 2 4 9 17 25 30 34 35 35 40 44 44 40 35 35 37 36 33 31 32 34 34 32 31
1 0 0 0 0 0 0 0 0 0 0 0 1 2 2 3 4 5 8 9 8 9 15 24 31 36 39 39 40 42 44 44 41 39 39 42 44 44 43 42 42 42 40 40
1 0 0 0 0 0 0 0 0 0 1 0 0 0 1 4 7 9 12 15 18 20 25 29 35 41 43 43 43 45 45 44 43 43 45 48 51 52 51 48 48 49 49 47
1 0 0 0 0 0 0 0 0 0 0 0 0 0 1 5 10 14 18 22 26 32 35 37 43 48 49 47 47 48 46 46 48 52 54 57 60 60 55 52 53 56 55 52
0 0 0 0 0 0 0 0 0 0 0 0 0 0 3 8 14 19 24 29 34 39 43 45 51 55 55 53 53 52 49 51 57 62 64 67 69 66 61 58 60 61 57 51
0 0 0 0 0 0 0 0 0 0 0 0 1 2 7 14 19 24 28 36 43 45 45 47 51 55 56 57 58 57 55 58 66 70 71 71 71 68 66 66 67 65 57 51
0 0 0 0 0 0 0 0 0 0 0 1 2 4 11 20 26 28 32 40 49 50 47 47 51 55 57 60 62 62 62 67 73 76 75 74 72 70 70 72 72 68 61 56
1 1 1 0 0 0 0 0 0 1 2 3 4 7 14 24 30 33 36 41 48 52 51 52 54 57 58 59 62 64 67 71 76 77 77 76 75 73 71 72 71 68 65 62
3 3 2 0 0 0 0 0 0 1 4 8 10 12 17 25 31 35 39 43 49 54 55 55 55 55 54 56 61 66 68 71 73 75 75 75 74 72 70 68 67 65 65 65
3 4 2 0 0 0 0 0 0 2 8 13 15 16 19 24 30 36 39 44 50 55 56 55 53 51 50 53 61 67 69 70 70 69 69 69 68 68 68 68 66 64 63 64
2 3 1 0 0 0 0 1 1 4 12 19 21 22 25 29 32 36 40 44 50 54 56 56 53 51 52 57 64 69 69 68 67 64 62 62 62 65 66 66 66 64 62 60
2 2 1 0 0 0 2 5 8 13 22 28 29 31 34 37 36 37 40 45 51 55 57 58 58 57 60 64 68 71 71 68 64 61 59 58 59 59 60 61 64 64 61 60
2 2 3 4 5 7 10 13 19 27 32 33 32 33 36 38 37 37 40 44 49 54 55 58 62 65 68 69 70 73 72 67 60 57 56 55 54 52 51 55 60 61 60 58
4 6 9 12 15 18 20 23 27 31 32 31 29 29 29 32 34 36 39 44 47 49 51 54 61 67 69 69 69 71 71 65 58 54 52 50 47 45 45 49 53 54 53 51
9 11 16 21 24 25 26 26 27 28 27 26 25 24 24 27 31 36 42 47 49 50 49 51 57 64 66 66 64 64 64 62 56 49 46 43 40 39 42 44 44 43 43 42
13 13 19 27 30 28 26 24 24 24 24 23 22 21 22 25 30 38 48 53 54 53 50 49 53 58 60 59 56 54 53 54 50 45 41 38 34 34 37 38 35 31 30 31
13 15 21 28 32 30 26 24 22 22 22 21 19 19 21 24 31 41 51 57 56 54 51 50 51 53 54 53 51 47 46 48 47 43 40 35 33 32 34 34 28 22 21 22

GEFSCGP_con_probscp_252.txt.gz
Probability
0 0 0 0 0 0 0 0 0 0 0 0 0 0 1 2 3 3 3 3 4 5 6 6 8 13 15 13 12 11 9 8 7 5 4 2 1 0 0 1 2 3 3 3
0 0 0 0 0 0 0 0 0 0 0 0 0 0 1 2 3 3 3 3 4 5 6 6 9 15 18 16 14 12 11 10 8 6 5 3 1 0 0 1 2 3 3 3
0 0 0 0 0 0 0 0 0 0 0 0 0 0 1 2 3 3 3 3 4 5 6 7 10 17 21 19 16 14 13 12 9 8 7 4 2 0 0 1 2 3 3 4
0 0 0 0 0 0 0 0 0 0 1 0 0 0 1 2 3 3 3 3 4 6 7 7 10 16 19 18 17 15 14 11 10 9 9 6 3 1 1 1 2 3 4 5
0 0 0 0 0 0 0 0 0 0 0 0 0 0 1 2 3 3 3 3 3 6 7 6 9 15 17 16 16 15 12 10 9 9 8 6 3 1 0 0 1 2 4 5
0 0 0 0 0 0 0 0 0 0 0 0 0 0 0 1 2 3 2 2 2 6 8 8 11 17 18 15 13 13 12 11 10 10 8 6 3 1 0 0 0 1 3 5
0 0 0 0 0 0 0 0 0 0 0 0 0 0 0 0 1 1 2 2 4 7 10 11 15 20 20 17 14 14 14 13 12 11 9 8 6 3 1 1 1 2 5 6
0 0 0 0 0 0 0 0 0 0 0 0 1 1 1 1 1 2 3 5 8 10 12 15 20 23 22 20 19 18 18 17 15 13 11 9 8 5 4 3 4 5 7 8
0 0 0 0 0 0 0 0 0 0 0 0 1 1 1 1 3 4 6 9 12 13 14 19 24 26 24 23 23 23 22 21 18 15 12 10 8 7 6 6 7 8 8 8
0 0 0 0 0 0 0 0 0 0 0 0 1 1 1 2 5 7 9 13 15 14 16 20 24 25 25 26 26 24 23 22 20 17 13 10 10 10 10 10 10 10 9 9
0 0 0 0 0 0 0 0 0 0 0 0 0 0 0 3 7 11 13 17 19 18 18 20 20 22 24 26 27 26 25 24 23 18 15 13 12 12 13 14 14 13 12 13
0 0 0 0 0 0 0 0 0 0 0 0 0 0 1 5 10 15 18 21 23 22 20 18 16 18 21 23 25 27 29 28 26 22 19 17 16 16 17 18 19 17 16 18
0 0 0 0 0 0 0 0 0 0 0 0 0 2 5 9 13 18 22 23 25 26 23 18 15 16 18 19 23 27 30 30 30 28 26 22 20 19 20 22 23 21 21 23
0 0 0 0 0 0 0 0 0 0 0 0 2 5 8 11 15 19 22 24 25 26 24 20 18 17 18 21 24 29 32 32 33 34 32 28 25 25 26 27 27 27 27 28
0 0 0 0 0 0 1 2 2 2 1 2 4 7 9 12 15 19 23 25 26 27 26 24 22 22 23 24 26 30 33 36 37 37 35 34 33 33 32 32 32 31 30 30
0 0 0 0 0 1 2 4 5 5 4 4 6 8 12 16 19 22 24 25 28 29 28 28 28 27 27 26 26 28 32 38 41 40 39 38 39 39 37 36 34 31 29 28
0 0 0 0 0 1 2 4 6 9 10 8 9 12 17 22 24 23 22 24 27 30 31 31 31 30 27 25 25 27 31 37 42 41 39 39 39 41 41 40 35 30 27 26
0 0 0 0 0 0 1 2 5 10 15 15 15 18 22 25 24 21 21 23 27 32 33 32 32 30 25 23 24 28 32 37 40 39 37 38 40 43 44 42 35 30 27 25
0 0 0 0 1 1 1 2 4 12 18 19 19 21 25 26 24 21 22 25 29 33 36 35 33 31 27 24 25 28 32 36 39 38 36 39 43 45 44 39 32 28 27 25
0 0 0 0 2 3 5 6 9 13 17 17 17 21 26 28 25 23 23 26 28 32 35 34 31 30 28 27 26 27 28 32 34 35 37 40 43 43 40 34 30 28 27 26
0 0 0 0 2 5 8 12 13 14 15 15 18 22 26 26 24 23 24 25 26 28 30 29 28 28 27 26 26 25 23 24 25 29 35 38 37 36 33 30 29 29 29 30
1 0 0 1 2 4 8 12 13 13 15 18 21 24 25 24 23 23 24 23 23 25 26 25 25 25 24 24 23 21 19 21 23 26 30 30 29 28 27 27 27 28 30 31
2 2 3 4 4 5 6 9 10 13 18 22 22 23 23 23 22 22 21 20 21 23 24 22 22 21 21 21 20 18 17 19 22 23 24 23 22 22 23 23 24 25 28 29
4 5 7 8 8 8 8 8 10 13 18 20 19 19 20 20 20 19 17 16 18 20 20 19 18 18 19 19 18 16 15 15 17 18 19 19 19 19 20 20 21 23 24 25
6 7 9 11 11 11 11 10 10 12 15 15 15 16 18 19 19 16 14 13 13 15 17 17 17 17 18 19 18 16 14 13 14 16 17 18 18 18 18 18 18 19 20 21
6 7 9 11 11 11 11 11 11 11 12 12 13 15 18 19 18 16 13 11 10 13 16 18 17 16 17 19 19 16 13 13 14 15 17 18 18 17 17 16 15 15 17 17

GEFSCGP_con_probscp_258.txt.gz
Probability
0 0 0 0 0 0 0 0 0 0 0 0 0 0 0 0 0 0 0 0 0 0 0 0 0 0 0 1 2 3 4 5 6 6 4 3 3 2 1 0 1 0 0 0
0 0 0 0 0 0 0 0 0 0 0 0 0 0 0 0 0 0 0 0 0 0 0 0 0 0 0 1 2 3 4 5 6 6 5 4 3 3 1 1 2 1 1 1
0 0 0 0 0 0 0 0 0 0 0 0 0 0 0 0 0 0 0 0 0 0 0 0 0 0 0 1 2 3 4 4 5 5 5 4 4 3 3 3 3 3 2 2
0 1 1 1 1 0 0 0 0 0 0 0 0 0 0 0 0 0 0 1 1 1 0 0 0 0 0 1 3 4 5 5 4 5 4 4 3 3 3 3 3 3 3 3
1 2 2 2 1 0 0 0 0 0 0 0 0 0 0 0 0 0 0 1 3 2 1 0 0 0 1 3 5 6 5 4 3 3 3 3 3 3 3 3 3 3 2 2
1 2 3 3 1 0 0 0 0 0 0 0 0 0 0 0 0 0 0 1 3 3 1 0 1 1 3 5 7 6 5 3 1 1 2 3 3 2 2 2 2 1 1 1
1 2 3 2 1 0 0 0 0 0 0 0 0 0 0 0 0 0 0 1 3 2 1 1 2 4 6 7 8 7 6 4 2 1 1 2 2 2 2 1 1 0 0 1
0 1 2 2 1 0 0 0 0 0 0 0 0 0 0 0 0 0 0 1 3 3 2 3 5 9 11 10 10 10 8 5 3 3 4 3 3 3 2 1 1 1 1 2
0 0 1 1 1 0 0 0 0 0 0 0 0 0 0 0 0 0 0 1 3 4 4 6 9 12 13 12 11 11 9 6 4 5 6 6 5 4 4 3 3 4 4 4
0 0 0 0 0 0 0 0 0 0 0 0 0 0 0 0 0 0 0 1 3 5 6 8 11 12 12 11 10 11 10 8 7 7 8 7 6 5 5 5 6 6 6 6
0 0 0 0 0 0 0 0 0 0 0 0 0 0 0 0 1 2 1 1 4 7 9 10 11 11 11 9 9 10 12 12 11 11 11 9 8 7 7 7 8 8 8 8
0 0 0 0 0 0 0 0 0 0 0 0 0 0 0 1 3 3 2 2 5 8 10 9 10 10 9 8 8 11 13 14 14 13 12 11 10 9 9 9 10 10 10 10
0 0 0 0 0 0 0 0 0 0 0 0 1 2 2 4 6 6 6 6 7 9 10 9 8 9 9 8 8 10 13 14 14 14 14 13 13 13 12 12 12 13 12 12
0 0 0 0 1 1 1 0 0 0 0 1 1 3 4 6 9 12 12 11 11 12 11 10 10 11 11 10 9 11 15 18 18 18 18 16 15 16 16 16 15 14 13 13
0 0 1 2 2 3 2 1 1 1 1 2 3 4 5 7 11 15 16 14 13 13 13 13 13 13 13 13 13 14 19 23 24 24 24 22 19 19 20 19 18 17 14 13
0 0 2 3 3 3 4 3 2 2 3 3 3 4 6 10 13 16 16 13 11 11 12 13 14 13 14 16 17 18 21 25 28 28 27 25 24 24 23 20 20 18 16 16
0 0 1 2 2 2 3 3 3 3 3 3 4 5 9 14 15 15 14 12 10 9 10 12 12 12 15 18 19 19 21 25 28 28 26 26 26 25 24 21 21 20 19 19
0 0 0 1 1 2 3 4 3 3 3 4 6 9 14 17 16 14 14 13 12 11 11 13 13 14 17 19 18 18 20 23 25 25 24 24 25 25 24 23 23 23 22 22
0 0 0 1 2 3 4 5 4 3 4 6 9 13 18 20 18 15 13 14 14 14 13 14 15 17 19 19 16 16 18 20 20 20 22 25 25 25 25 26 26 25 24 24
0 0 0 1 2 2 3 5 5 4 4 8 13 18 20 20 17 13 12 12 13 13 12 11 14 18 18 17 14 13 14 15 14 14 19 23 23 23 26 29 29 26 25 27
0 0 0 0 1 1 2 5 5 3 4 10 16 19 20 18 15 13 12 12 11 11 10 10 13 15 14 13 11 10 9 8 8 10 15 18 17 18 23 27 27 25 25 27
0 0 0 0 0 0 1 3 2 2 5 11 16 18 18 18 16 14 13 13 13 13 13 12 13 12 9 8 9 8 5 4 5 8 11 13 13 14 18 21 22 21 22 24
1 0 1 1 2 1 2 2 2 3 7 11 13 15 17 19 17 14 12 13 13 15 17 16 13 10 8 8 8 7 5 5 7 9 10 10 11 12 14 17 17 17 18 19
2 2 3 4 4 3 3 3 4 6 8 10 12 14 16 17 14 11 11 10 10 12 14 14 11 9 9 9 9 9 8 9 12 12 10 9 10 12 14 15 15 14 15 16
4 5 5 5 4 4 3 4 6 8 9 10 11 13 15 14 11 10 9 8 7 7 9 9 9 8 10 10 10 10 11 12 14 14 12 11 12 13 14 14 12 11 11 12
4 6 6 4 3 3 3 4 7 9 10 10 11 12 14 13 11 9 8 7 5 5 6 7 7 9 10 11 10 10 12 13 14 14 14 14 14 14 14 13 10 8 8 8

GEFSCGP_con_probscp_264.txt.gz
Probability
0 0 0 0 0 0 0 0 0 0 0 0 0 0 0 0 0 0 0 0 0 0 1 2 1 2 3 3 3 4 4 4 3 4 5 4 2 1 0 0 1 2 1 0
0 0 0 0 0 0 0 0 0 0 0 0 0 0 0 0 0 0 0 0 0 1 3 4 4 3 3 3 4 4 5 5 4 5 5 4 2 1 0 0 1 1 1 0
0 0 0 0 0 1 1 0 1 1 0 0 0 0 0 0 0 0 0 0 0 1 4 7 7 6 5 4 4 6 8 9 8 7 5 4 3 1 1 1 1 0 0 0
0 0 0 0 1 2 2 2 2 2 1 0 0 0 0 0 0 0 0 0 0 1 4 7 8 8 7 5 4 7 11 13 11 9 8 6 4 2 2 1 1 1 0 1
0 0 0 1 2 3 3 2 2 2 1 0 0 0 0 0 0 0 0 0 0 2 4 6 7 9 8 5 4 7 11 13 12 11 10 9 6 5 3 3 4 3 2 2
0 0 0 1 2 3 3 1 1 1 0 0 0 0 0 0 0 0 0 0 1 2 4 5 6 8 7 5 4 6 9 11 11 10 11 10 9 8 6 5 6 7 5 4
0 0 0 1 2 2 2 1 0 0 0 0 0 0 0 0 0 0 0 0 1 3 4 5 6 8 9 8 6 7 10 11 10 10 10 9 9 9 9 7 7 7 6 5
0 0 0 0 1 1 1 0 0 0 0 0 0 0 0 0 1 1 1 1 2 4 6 6 7 9 12 12 10 11 14 14 13 11 9 8 8 8 8 7 6 6 5 4
0 0 0 0 0 0 0 0 0 0 0 0 0 0 0 0 1 2 3 4 4 5 7 7 7 8 11 13 12 13 17 18 16 13 11 9 9 8 7 6 6 5 6 6
0 0 0 0 0 0 0 0 0 0 0 0 0 0 1 1 2 3 6 8 9 9 9 9 9 9 11 13 13 15 19 20 19 17 15 14 12 10 8 6 6 7 9 11
0 0 0 0 0 0 0 0 0 0 0 0 0 1 2 2 3 4 6 9 12 13 13 14 14 15 16 16 16 18 21 23 23 22 21 18 15 13 11 9 8 10 12 14
0 0 0 0 0 0 0 0 0 0 0 0 0 1 2 3 3 5 7 9 12 16 19 20 21 23 23 21 20 22 24 25 27 27 25 22 19 18 16 14 14 14 15 15
0 0 0 0 0 0 0 0 0 0 0 0 0 1 3 3 4 6 9 10 12 18 23 24 26 29 29 27 26 25 25 26 27 28 28 27 26 25 23 22 21 21 20 19
0 0 0 0 0 0 0 0 0 0 0 0 1 2 4 4 5 7 11 13 15 19 24 26 29 32 32 31 30 28 26 25 24 25 27 30 31 31 29 28 28 28 29 29
0 0 0 0 0 0 0 0 0 0 0 0 1 3 5 6 7 9 14 17 18 21 24 27 30 31 31 30 29 29 28 26 25 26 27 31 36 36 33 31 31 32 34 36
0 0 0 0 0 0 0 0 0 0 0 0 1 5 7 8 9 13 17 20 21 22 24 27 29 28 27 27 30 31 30 29 30 31 31 35 40 39 34 31 30 31 33 35
0 0 0 0 0 0 1 1 1 1 2 3 5 8 9 9 11 16 20 23 23 23 24 26 27 25 23 25 29 32 33 33 35 37 38 41 44 41 35 32 31 32 34 35
0 0 0 0 0 1 2 4 4 5 6 8 10 10 10 10 12 15 20 24 25 24 24 27 27 22 19 22 26 31 35 38 40 43 45 45 45 42 38 35 34 36 37 38
0 1 1 1 0 1 3 4 7 9 10 11 12 11 11 10 11 13 17 23 26 24 26 30 31 25 21 21 23 28 35 41 44 46 48 47 44 40 36 34 35 38 40 39
0 1 1 1 0 1 2 3 6 9 10 10 10 11 11 12 13 15 19 25 28 27 28 32 33 30 26 25 25 28 34 39 42 43 45 45 42 35 29 29 34 37 37 35
1 0 0 0 0 1 2 3 5 8 11 11 11 12 12 14 17 20 24 28 29 30 31 32 31 29 27 26 28 31 34 37 38 39 39 38 36 30 26 27 32 33 31 29
3 2 1 1 2 4 6 7 8 12 16 15 14 14 15 18 19 20 24 27 28 31 33 31 27 26 25 25 28 33 35 38 38 36 34 32 30 29 28 30 31 29 27 26
7 5 3 4 6 8 11 12 13 16 20 19 17 17 17 17 16 17 21 24 26 31 33 30 26 26 26 27 30 34 37 38 37 34 32 31 30 30 32 33 31 30 29 29
9 8 8 10 11 13 14 14 15 18 20 19 16 15 14 13 14 16 20 22 24 27 31 31 31 32 30 29 31 34 36 35 33 31 31 31 31 31 33 33 30 29 30 31
8 8 10 13 15 15 15 14 15 17 19 18 16 14 11 11 14 18 21 23 22 23 29 33 36 37 35 30 29 30 31 31 30 29 30 29 28 30 31 30 25 23 24 25
6 7 9 13 15 16 15 13 14 17 19 19 17 14 11 12 16 20 22 23 22 23 29 34 38 39 37 31 27 26 27 28 27 29 29 28 27 28 29 27 20 16 17 18

GEFSCGP_con_probscp_270.txt.gz
Probability
0 0 0 0 0 0 0 0 0 0 0 1 0 0 0 1 1 1 1 2 6 8 8 7 7 10 16 21 21 18 16 13 10 7 7 8 8 7 6 6 6 5 3 3
0 0 0 0 0 0 0 0 0 0 0 1 1 0 1 1 1 0 1 4 8 11 11 11 11 13 20 26 25 21 18 16 13 10 10 10 9 9 8 8 7 6 4 3
0 0 0 0 0 0 0 0 0 0 0 1 2 1 1 1 1 0 1 3 8 12 14 15 14 16 24 30 29 23 21 20 18 15 14 13 13 13 11 11 11 8 6 6
0 0 0 0 0 0 0 0 1 1 1 0 1 0 0 1 1 1 1 2 4 9 14 15 14 15 22 28 27 25 26 26 22 18 16 15 15 14 14 15 14 12 10 10
0 0 0 0 0 0 0 0 1 1 1 0 0 0 0 1 2 2 2 2 2 6 13 16 15 16 19 22 24 27 30 31 26 21 16 14 14 13 14 15 15 13 12 10
0 0 0 0 0 0 0 0 0 0 0 0 0 0 1 1 3 3 3 2 2 5 13 18 19 21 21 20 22 28 32 32 30 24 17 14 13 12 13 14 13 12 11 11
0 0 0 0 0 0 0 0 0 0 0 0 0 1 2 2 2 3 3 3 2 6 14 20 24 26 25 22 23 29 34 34 31 27 20 16 15 14 13 12 11 10 11 11
0 0 0 0 0 0 0 0 0 0 0 0 0 1 3 3 2 3 3 3 4 8 15 22 26 28 26 24 25 31 37 36 32 29 24 21 20 18 14 12 10 9 10 11
0 0 0 0 0 0 0 0 0 0 0 0 0 1 3 3 3 4 4 5 7 10 16 22 26 26 26 25 28 34 39 41 36 30 27 26 26 23 18 15 11 10 11 12
0 0 0 0 0 0 0 0 0 0 0 0 0 1 2 4 5 5 5 6 9 13 17 21 24 25 26 27 31 37 43 46 42 35 32 33 33 29 24 20 17 16 17 19
0 0 0 0 0 0 0 0 0 0 0 0 0 1 3 5 7 7 6 7 11 15 19 23 25 26 27 30 34 41 47 50 47 43 43 44 42 36 31 28 28 28 28 28
0 0 0 0 0 0 0 0 0 0 0 0 0 2 4 6 8 10 11 11 14 19 24 28 31 31 31 35 39 44 49 51 51 50 51 51 47 43 39 38 40 41 39 37
0 0 0 0 0 0 0 0 0 0 0 0 1 3 6 8 10 12 15 17 20 25 30 35 39 40 40 42 46 48 48 50 52 52 52 50 47 46 45 45 48 50 47 43
0 0 0 0 0 0 0 0 0 0 0 1 3 5 8 11 14 15 18 22 26 31 35 39 44 49 48 48 49 49 48 49 52 53 51 48 47 45 45 48 51 53 50 45
0 0 0 0 0 0 0 0 0 0 1 3 6 8 10 14 17 18 22 29 34 37 39 43 50 54 54 52 52 50 48 48 52 55 53 51 49 46 46 49 52 53 50 47
0 0 0 0 0 0 0 0 0 0 1 4 7 10 13 15 17 20 26 33 40 42 44 49 56 59 60 58 56 53 51 51 53 56 56 55 53 49 49 53 54 54 53 52
1 2 1 0 0 0 0 0 1 1 2 4 7 11 13 13 15 19 25 31 36 39 43 50 56 61 64 63 61 57 54 52 53 55 56 56 55 52 51 54 56 56 56 54
3 5 4 1 0 0 0 0 2 3 5 8 11 13 13 12 12 15 20 25 29 34 39 44 50 55 60 62 60 57 52 49 50 52 54 56 56 54 53 55 57 57 55 54
3 5 4 2 1 0 0 1 3 5 9 13 17 18 16 13 12 13 17 20 25 31 35 40 44 49 54 55 55 53 50 47 47 50 53 55 57 56 55 57 59 57 55 53
1 3 3 2 1 0 2 4 5 8 13 17 21 23 21 18 17 17 18 21 26 32 36 40 44 47 50 52 51 51 51 49 48 49 52 55 56 56 56 57 59 57 53 51
1 1 1 1 0 1 3 5 7 13 20 22 23 25 25 25 24 24 23 25 30 34 38 43 47 49 51 53 53 53 52 51 49 48 50 53 54 53 52 54 54 53 51 49
2 2 3 2 3 5 7 8 12 20 25 26 25 26 27 27 27 27 27 28 32 34 38 44 48 50 52 53 54 54 53 52 51 48 48 51 52 49 48 49 49 48 47 47
7 9 11 11 11 12 14 16 18 21 24 25 25 24 24 25 25 26 27 28 30 32 36 42 47 49 51 50 50 51 51 51 50 47 47 48 48 46 45 45 44 41 40 40
11 14 18 20 18 17 18 19 19 18 19 22 21 19 19 21 24 25 26 27 29 32 37 41 45 46 47 46 46 47 47 47 47 45 44 45 44 43 42 39 35 32 30 31
10 12 18 22 21 19 19 18 15 15 16 16 17 15 15 19 24 27 27 28 31 34 38 41 43 43 42 43 44 44 44 44 44 43 41 40 39 37 35 29 24 21 19 20
8 10 14 20 22 21 20 17 14 13 14 14 15 14 15 18 23 27 29 29 32 35 39 42 42 40 39 40 42 41 41 42 43 42 39 37 35 34 30 23 17 13 12 12

GEFSCGP_con_probscp_276.txt.gz
Probability
1 1 1 0 0 0 0 0 0 0 0 0 0 0 0 1 1 2 2 2 2 1 4 9 12 12 10 7 5 5 4 2 1 1 2 2 1 1 1 1 0 0 0 0
0 0 0 0 0 0 0 0 0 0 0 0 0 0 0 0 1 3 4 4 3 3 5 10 13 14 13 9 6 6 4 3 1 0 1 1 0 0 1 1 0 0 0 0
0 0 0 0 0 0 0 0 0 0 0 0 0 0 0 0 1 3 5 5 4 6 8 11 13 16 16 12 9 7 6 4 2 1 0 0 0 0 0 0 0 0 0 0
0 0 0 0 0 0 0 0 0 0 0 0 0 0 0 1 2 3 5 6 6 8 11 13 14 16 17 15 12 9 7 5 3 2 1 0 0 0 0 0 0 0 0 0
0 0 0 0 0 0 0 0 0 0 0 0 0 0 0 2 3 3 5 6 6 7 11 14 14 13 16 18 16 12 9 6 4 3 1 0 0 0 0 0 0 0 0 0
0 0 0 0 0 0 0 0 0 0 0 0 0 0 0 1 2 4 4 5 6 7 8 11 13 13 17 21 20 15 11 7 5 3 1 0 0 0 0 0 0 0 0 0
0 0 0 0 0 0 0 0 0 0 0 0 0 0 0 0 1 3 4 6 8 8 8 10 13 15 19 24 24 19 14 10 8 5 2 0 0 0 0 0 1 1 2 1
0 0 0 0 0 0 0 0 0 0 0 0 0 0 0 0 1 2 4 6 8 8 10 13 15 17 21 24 26 24 20 15 12 9 7 4 2 1 1 2 2 3 3 3
0 0 0 0 0 0 0 0 0 0 0 0 0 0 0 0 1 2 4 6 7 9 14 17 17 18 20 22 25 27 25 20 16 15 14 10 7 6 5 5 5 4 3 3
0 0 0 0 0 0 0 0 0 0 0 0 0 0 0 1 1 2 5 8 11 14 18 20 18 16 18 21 23 26 27 24 20 19 18 16 13 13 12 11 8 5 3 3
0 0 0 0 0 0 0 0 0 0 0 0 0 0 1 2 2 3 7 11 15 19 21 21 17 14 14 18 21 25 27 26 23 21 21 20 19 18 18 15 10 6 5 4
0 0 0 0 0 0 0 0 0 0 0 0 0 0 1 2 3 6 10 14 17 19 21 21 18 14 13 15 20 25 29 29 26 25 25 23 21 20 20 16 12 11 9 9
0 0 0 0 0 0 0 0 0 0 0 0 0 1 1 2 5 9 13 17 17 16 19 21 21 19 17 16 21 28 31 31 30 29 29 26 23 21 20 18 16 16 16 15
0 0 0 0 0 0 0 0 0 0 0 0 0 0 1 4 7 10 14 17 16 16 18 20 22 23 21 20 24 30 33 33 32 32 31 28 24 22 21 20 19 18 19 20
0 0 0 0 0 0 0 0 0 0 1 2 1 1 2 6 10 12 14 16 16 17 18 21 23 24 22 22 25 30 34 35 35 34 32 29 26 24 24 23 21 19 21 22
0 0 0 0 0 0 0 0 0 0 1 4 4 3 5 9 12 13 14 16 17 17 17 20 24 25 22 22 26 31 35 39 38 36 32 29 28 29 28 26 23 22 22 23
0 0 0 1 1 1 0 0 0 1 2 5 6 7 10 14 15 15 15 16 17 17 17 20 23 25 24 25 28 33 38 41 41 37 32 30 32 33 33 29 25 24 24 25
0 0 0 1 1 1 0 0 0 1 3 5 8 11 15 17 16 15 14 16 17 17 18 20 23 25 25 27 30 34 37 40 39 36 33 33 33 34 33 30 27 25 25 26
0 0 0 0 0 1 1 1 1 1 2 6 10 14 17 18 16 13 12 14 16 17 19 22 25 27 27 30 34 33 33 34 34 33 33 32 31 31 29 27 24 23 24 25
0 0 0 0 0 0 2 3 3 2 2 6 11 15 16 16 14 12 11 13 15 16 20 24 28 29 30 32 34 32 29 29 28 29 30 30 29 29 27 22 19 19 20 21
0 0 0 0 0 1 3 5 6 4 3 5 9 12 13 13 12 12 13 15 17 18 21 26 30 31 30 32 32 30 28 27 27 28 29 28 27 27 25 20 16 15 16 18
1 0 0 0 0 1 4 7 7 6 5 7 7 8 9 11 12 15 17 19 20 20 22 26 29 29 29 29 30 28 27 27 27 27 26 24 23 23 22 18 14 14 15 16
2 2 3 4 4 4 6 8 8 8 8 9 8 8 10 13 16 19 20 19 19 20 20 22 23 24 25 26 26 24 24 25 25 24 22 19 18 18 18 16 14 13 14 15
3 4 6 8 8 8 8 8 9 8 9 11 11 11 15 19 20 21 19 17 17 17 16 16 16 19 21 23 23 22 22 23 23 21 18 16 16 16 16 16 14 13 13 13
3 5 7 8 7 7 6 6 7 9 11 12 13 15 17 20 19 18 16 14 15 15 14 14 14 15 18 20 20 20 21 21 21 19 16 15 15 15 15 13 11 10 10 10
3 4 5 5 4 4 4 5 7 11 13 13 14 16 17 18 17 15 13 12 14 15 15 14 13 13 15 18 20 20 21 22 21 19 17 15 15 15 12 9 7 6 6 5